Roseburg, OR

11:38 AM PDT on September 18, 2019 (GMT -0700)
Roseburg Regional

Weather History for KRBG - July, 2019

Change the Weather History Date:

Wednesday, July 17, 2019

  Actual Average Record
Temperature  
Mean Temperature 73 °F 71 °F  
Max Temperature 87 °F 85 °F 97 °F (1959)
Min Temperature 59 °F 57 °F 42 °F (1955)
Degree Days  
Heating Degree Days 0 0  
Month to date heating degree days 2 8  
Since 1 June heating degree days 37 91  
Since 1 July heating degree days 2 8  
Cooling Degree Days 8 6  
Month to date cooling degree days 96 83  
Year to date cooling degree days 247 153  
Since 1 June cooling degree days 218 133  
Growing Degree Days 22 (Base 50)    
Moisture  
Dew Point 54 °F    
Average Humidity 56    
Maximum Humidity 78    
Minimum Humidity 34    
Precipitation  
Precipitation 0.00 in 0.02 in 0.43 in (1991)
Month to date precipitation T 0.27  
Year to date precipitation 21.67 19.03  
Sea Level Pressure  
Sea Level Pressure 30.00 in    
Wind  
Wind Speed 5 mph (NNW)    
Max Wind Speed 14 mph    
Max Gust Speed 20 mph    
Visibility 10 miles    
Events      
T = Trace of Precipitation, MM = Missing Value Source: NWS Daily Summary

Daily Weather History Graph

Daily Weather History Graph

Search for Another Location

Airport or City:

Astronomy

Jul. 17, 2019 Rise Set
Actual Time 5:48 AM PDT 8:49 PM PDT
Civil Twilight 5:14 AM PDT 9:23 PM PDT
Nautical Twilight 4:31 AM PDT 10:07 PM PDT
Astronomical Twilight 3:39 AM PDT 10:58 PM PDT
Moon 9:41 PM PDT (7/17) 6:26 AM PDT (7/17)
Length of Visible Light 16h 09m
Length of Day
15h 01m
Full, 99% of the Moon is Illuminated
Jul 17
Full
Jul 24
Last Quarter
Jul 31
New
Aug 7
First Quarter
Aug 15
Full

Hourly Weather History & Observations

Time (PDT) Temp. Heat Index Dew Point Humidity Pressure Visibility Wind Dir Wind Speed Gust Speed Precip Events Conditions
12:53 AM 64.0 °F - 54.0 °F 70% 30.03 in 10.0 mi NW 4.6 mph - N/A   Mostly Cloudy
1:53 AM 63.0 °F - 53.1 °F 70% 30.04 in 10.0 mi North 4.6 mph - N/A   Clear
2:53 AM 60.1 °F - 53.1 °F 78% 30.03 in 10.0 mi NNE 5.8 mph - N/A   Partly Cloudy
3:07 AM 60.1 °F - 52.0 °F 75% 30.04 in 10.0 mi Calm Calm - N/A   Mostly Cloudy
3:53 AM 60.1 °F - 52.0 °F 75% 30.03 in 10.0 mi North 3.5 mph - N/A   Overcast
4:53 AM 60.1 °F - 52.0 °F 75% 30.04 in 10.0 mi North 5.8 mph - N/A   Overcast
5:53 AM 60.1 °F - 52.0 °F 75% 30.03 in 10.0 mi North 3.5 mph - N/A   Overcast
6:53 AM 61.0 °F - 53.1 °F 75% 30.05 in 10.0 mi North 5.8 mph - N/A   Overcast
7:53 AM 62.1 °F - 53.1 °F 72% 30.05 in 10.0 mi Calm Calm - N/A   Overcast
8:53 AM 64.9 °F - 53.1 °F 65% 30.04 in 10.0 mi Variable 3.5 mph - N/A   Mostly Cloudy
9:07 AM 64.9 °F - 53.1 °F 65% 30.04 in 10.0 mi Calm Calm - N/A   Scattered Clouds
9:53 AM 68.0 °F - 54.0 °F 61% 30.03 in 10.0 mi Variable 3.5 mph - N/A   Clear
10:53 AM 71.1 °F - 55.0 °F 57% 30.02 in 10.0 mi Calm Calm - N/A   Partly Cloudy
11:53 AM 77.0 °F - 51.1 °F 40% 30.00 in 10.0 mi ENE 3.5 mph - N/A   Clear
12:53 PM 79.0 °F - 53.1 °F 40% 29.98 in 10.0 mi Variable 4.6 mph - N/A   Clear
1:53 PM 81.0 °F 80.5 °F 54.0 °F 39% 29.96 in 10.0 mi WSW 3.5 mph - N/A   Clear
2:53 PM 84.9 °F 83.2 °F 53.1 °F 33% 29.95 in 10.0 mi NNW 9.2 mph - N/A   Clear
3:53 PM 84.9 °F 83.6 °F 55.0 °F 36% 29.94 in 10.0 mi NNW 9.2 mph - N/A   Scattered Clouds
4:53 PM 84.9 °F 83.6 °F 55.0 °F 36% 29.93 in 10.0 mi North 10.4 mph - N/A   Mostly Cloudy
5:53 PM 82.0 °F 81.6 °F 55.9 °F 41% 29.94 in 10.0 mi NNW 11.5 mph 18.4 mph N/A   Mostly Cloudy
6:53 PM 79.0 °F - 55.9 °F 45% 29.95 in 10.0 mi WNW 10.4 mph - N/A   Mostly Cloudy
7:53 PM 75.9 °F - 57.0 °F 52% 29.96 in 10.0 mi Variable 5.8 mph - N/A   Overcast
8:53 PM 75.0 °F - 57.0 °F 53% 29.97 in 10.0 mi NNW 9.2 mph - N/A   Overcast
9:53 PM 71.1 °F - 57.0 °F 61% 29.99 in 10.0 mi WNW 8.1 mph - N/A   Overcast
10:53 PM 70.0 °F - 57.9 °F 65% 30.00 in 10.0 mi Calm Calm - N/A   Overcast
11:53 PM 70.0 °F - 57.9 °F 65% 29.99 in 10.0 mi Calm Calm - N/A   Overcast